Location: Bruderhein
(53.8035°N, 112.9265°W)
Time: 17:41:37
(UTC+00:00)

AIST 2D - Visible Passes

Search period start: 28 March 2023 00:00
Search period end: 07 April 2023 00:00
Orbit: 401 x 412 km, 97.0° (Epoch: 28 March)

Date Brightness Start Highest point End Pass type
(mag) Time Alt. Az. Time Alt. Az. Time Alt. Az.
28 Mar ? 04:44:31 10° NNE 04:44:56 13° NNE 04:44:56 13° NNE visible
28 Mar ? 06:17:17 10° NNW 06:17:42 12° NNW 06:17:42 12° NNW visible
29 Mar ? 05:28:09 10° N 05:29:06 18° N 05:29:06 18° N visible
30 Mar ? 04:39:50 10° NNE 04:40:27 15° NNE 04:40:27 15° NNE visible
30 Mar ? 06:12:25 10° NNW 06:13:13 14° NNW 06:13:13 14° NNW visible
31 Mar ? 05:23:17 10° N 05:24:30 21° N 05:24:30 21° N visible
01 Apr ? 04:34:55 10° NNE 04:35:44 16° NE 04:35:44 16° NE visible
01 Apr ? 06:07:19 10° NNW 06:08:28 16° NW 06:08:28 16° NW visible
02 Apr ? 05:18:10 10° N 05:19:39 25° N 05:19:39 25° N visible
03 Apr ? 04:29:47 10° NNE 04:30:46 17° NE 04:30:46 17° NE visible
03 Apr ? 06:01:59 10° NNW 06:03:30 18° NW 06:03:30 18° NW visible
04 Apr ? 05:12:51 10° N 05:14:33 29° N 05:14:33 29° N visible
05 Apr ? 04:24:26 10° NE 04:25:32 18° NE 04:25:32 18° NE visible
05 Apr ? 05:56:26 10° N 05:58:17 21° NW 05:58:17 21° NW visible
06 Apr ? 05:07:16 10° NNE 05:09:13 35° NNE 05:09:13 35° NNE visible
